Location: Chevoux
(46.3801°N, 4.9476°E)
Time: 23:32:40
(UTC+00:00)

AO-7 - Visible Passes

Search period start: 21 June 2021 00:00
Search period end: 01 July 2021 00:00
Orbit: 1439 x 1459 km, 101.9° (Epoch: 21 June)

Date Brightness Start Highest point End Pass type
(mag) Time Alt. Az. Time Alt. Az. Time Alt. Az.
21 Jun ? 02:15:04 10° NE 02:20:48 20° E 02:26:31 10° SE visible
22 Jun ? 03:06:39 10° NNE 03:14:28 41° E 03:22:13 10° SSE visible
23 Jun ? 02:08:22 10° NE 02:13:38 18° E 02:18:52 10° SE visible
24 Jun ? 02:59:43 10° NNE 03:07:22 38° E 03:14:57 10° SSE visible
25 Jun ? 02:01:47 10° NE 02:06:27 16° E 02:11:06 10° ESE visible
26 Jun ? 02:52:48 10° NNE 03:00:15 34° E 03:07:39 10° SSE visible
27 Jun ? 01:55:19 10° ENE 01:59:16 14° E 02:03:12 10° ESE visible
28 Jun ? 02:45:54 10° NE 02:53:08 31° E 03:00:18 10° SSE visible
29 Jun ? 01:49:04 10° ENE 01:52:04 12° E 01:55:02 10° ESE visible
30 Jun ? 02:39:02 10° NE 02:46:00 28° E 02:52:56 10° SSE visible
